This is the latest recevied weather packets stored in our database for station/object K1ZK-13. If no packets are shown the sender has not sent any weather packets the latest 10 day(s).
| Time | Temp. | Humidity | Pressure | Rain* | Wind** | Luminosity | Snow |
|---|---|---|---|---|---|---|---|
| 1777562032 | 11.67° C | 93% | 1006.5 hPa | 0 mm | - | 145 W/m² | - |
| 1777561730 | 11.67° C | 94% | 1006.4 hPa | 0 mm | - | 101 W/m² | - |
| 1777561425 | 11.67° C | 94% | 1006.4 hPa | 0 mm | - | 67 W/m² | - |
| 1777561120 | 11.67° C | 93% | 1006.5 hPa | 0 mm | - | 151 W/m² | - |
| 1777560816 | 11.67° C | 94% | 1006.4 hPa | 0 mm | - | 197 W/m² | - |
| 1777560514 | 11.67° C | 94% | 1006.4 hPa | 0 mm | - | 255 W/m² | - |
| 1777560211 | 11.11° C | 95% | 1006.6 hPa | 0 mm | - | 160 W/m² | - |
| 1777559908 | 11.11° C | 94% | 1006.4 hPa | 0 mm | - | 200 W/m² | - |
| 1777559602 | 11.11° C | 95% | 1006.7 hPa | 0 mm | - | 165 W/m² | - |
| 1777559301 | 11.11° C | 95% | 1006.4 hPa | 0 mm | - | 139 W/m² | - |
| 1777558997 | 10.56° C | 96% | 1006.4 hPa | 0 mm | - | 127 W/m² | - |
| 1777558693 | 10.56° C | 96% | 1006.4 hPa | 0 mm | - | 117 W/m² | - |
| 1777558389 | 10.56° C | 97% | 1006.4 hPa | 0 mm | - | 78 W/m² | - |
| 1777558085 | 10.56° C | 96% | 1006.3 hPa | 0 mm | - | 90 W/m² | - |
| 1777557781 | 10.56° C | 96% | 1006.5 hPa | 0 mm | - | 91 W/m² | - |
| 1777557478 | 10.56° C | 96% | 1006.4 hPa | 0 mm | - | 105 W/m² | - |
| 1777557174 | 10.56° C | 96% | 1006.3 hPa | 0 mm | - | 132 W/m² | - |
| 1777556870 | 10.56° C | 96% | 1006.3 hPa | 0 mm | - | 132 W/m² | - |
| 1777556566 | 10.56° C | 96% | 1006.4 hPa | 0 mm | - | 103 W/m² | - |
| 1777556266 | 11.11° C | 97% | 1006.3 hPa | 0 mm | - | 144 W/m² | - |
| 1777555962 | 10.56° C | 97% | 1006.3 hPa | 0 mm | - | 178 W/m² | - |
| 1777555658 | 10.56° C | 97% | 1006.4 hPa | 0 mm | - | 168 W/m² | - |
| 1777555354 | 10.56° C | 98% | 1006.4 hPa | 0 mm | - | 172 W/m² | - |
| 1777555051 | 10.56° C | 98% | 1006.5 hPa | 0 mm | - | 228 W/m² | - |
| 1777554748 | 10.56° C | 98% | 1006.5 hPa | 0 mm | - | 173 W/m² | - |
* Rain latest hour (hover to see other rain measurements)
** Current wind speed in m/s (hover to see current wind gust speed)